sat.trackr.live / text

‹ back to catalog

STARLINK-30813

NORAD 58213 · 2023-170H

PAYLOAD ACTIVE UNKNOWN

§ Identity

Operator
Country
US
Launch date
2023-11-03
Launch site
AFETR
Launch vehicle
Mass (kg)
RCS (m²)

Purposes: comms

External: N2YO · Heavens-Above · Gunter

§ Orbital elements

Epoch: 2026-05-25T05:01:19.826400Z

Period
94.27 min
Inclination
43.0021°
Eccentricity
0.0001375
Mean motion
15.27582771 rev/d
Perigee alt
482.1 km
Apogee alt
484.0 km
Semi-major
6,861.2 km
B*
4.7013e-5
RAAN
121.9548°
Arg perigee
284.3314°
Mean anomaly
75.7385°
Rev number
14,200

§ Raw data

STARLINK-308131 58213U 23170H   26145.20925725  .00001032  00000+0  47013-4 0  99962 58213  43.0021 121.9548 0001375 284.3314  75.7385 15.27582771142009

JSON: /api/v1/satellites/58213 · /tle

For live sub-satellite position, see the globe view (requires WebGL).

§ Visibility from observer

Set your observer location to see the next 7 days of passes ≥ 10°. The values pass through the URL so the page stays shareable.

No JS? Fill the form by hand. The geolocation button needs JavaScript.